"Pseudo-MPEC" for P10OT5p

Created 2019 Jun 15 19:08:54 UT using Find_Orb

Click here for an explanation of pseudo-MPECs

 
 Astrometry: 
     P10OT5p  C2019 05 26#@Astrometryd25FK7i[nK_XcQa)=.d_rWQ#N1.+Ye%CQ:C,3^^wF52
     P10OT5p  C2019 05 302!(t^E\I^TZ51.redacted;?mY^s#5gF8s3vNLM`'U4fpi8$IMi1F52
     P10OT5p  C2019 06 09MbX,F+c6s0Nlw$tclickIQ5Q`I=:t`RRchere%vt,^,l_8Vu1@#WF51
     P10OT5p  C2019 06 09q'RA2ALrDC2r)KlwG@)_LODd_?uYB-Q#9riZx;$A'wJEpB#6%bUaF51
     P10OT5p  C2019 06 09':Vt#c%ZQ$6O?opGltlHDiKZn3PItWUhl2+qFbHJxwjmGk9A]a?2F51
     P10OT5p  C2019 06 09SuF)xt;O).;4%bv'2u$B%G\+C?eVr`V_P=!Zdu4C7eKJ:)\/Nc3)F51
     P10OT5p  C2019 06 10xL!_\Wx2tSFt=vc;3Nf7hI$2FCvY9%WeZpG8n3f4;?0XZw,5N$-RF51
     P10OT5p HC2019 06 116SOf2hEC-n.rv8d-^NerKKM:yQG,AT[.f$Sdefor3XN_tJx94+QK691
     P10OT5p HC2019 06 11#gv*\P[)\W^=?$urBa`5yO9wh']sCbP0^[F4p*pMBhlFc?i$YC9X691
     P10OT5p HC2019 06 11rR0:YGgV/Amyg\Iq,Q9Nw:l]pO0.SrmP?[,NSMu,;1Uf,F*t8W/*691
     P10OT5p KC2019 06 127sljid8?]M1-`2HLAiD(ojfC)@lJkep\.ZNN=!.([;CGoh-9JV)6691
     P10OT5p KC2019 06 12yf1yX5jw,,fT4^/B@j]c7UXZbK*/u=u,p.u;_'AknPY,9!L*96An691
     P10OT5p KC2019 06 12H!1t`O][GXA=@XDTql^QRw,$'explanationyn#HqXYErb(S/`NM691
     P10OT5p  C2019 06 13.28939 16 41 59.46 +02 47 34.6    ~6D7q 22.8 GVNEOCPI52
     P10OT5p  C2019 06 13.29701 16 41 59.22 +02 47 31.3    ~6D7q 21.0 GVNEOCPI52
     P10OT5p  C2019 06 13.30463 16 41 59.02 +02 47 29.3    ~6D7q 22.1 GVNEOCPI52
     P10OT5p  C2019 06 13.31129 16 41 58.79 +02 47 27.4    ~6D7q 21.0 GVNEOCPI52

Station data:
(691) Steward Observatory, Kitt Peak - Spacewatch  (N31.962174 W111.600327)
   US/Arizona.  Observer J. V. Scotti. 0.9-m f/3 reflector + CCD.
(F51) Pan-STARRS 1, Haleakala  (N20.707235 W156.255910)  US/Hawaii.
   Observers N. Primak, A. Schultz, S. Watters, J. Thiel, T. Goggia. Measurer
   PS1 Science Consortium. 1.8-m Ritchey-Chrétien + CCD.
(F52) Pan-STARRS 2, Haleakala  (N20.707384 W156.255910)  US/Hawaii. 1.8-m
   Ritchey-Chrétien + CCD.
(I52) Steward Observatory, Mt. Lemmon Station  (N32.442547 W110.788920)
   US/Arizona.  Observers T. A. Pruyne, B. M. Africano, E. J. Christensen, G.
   A. Farneth, D. C. Fuls, A. R. Gibbs, A. D. Grauer, H. Groeller, J. A.
   Johnson, R. A. Kowalski, S. M. Larson, G. J. Leonard, R. L. Seaman, F. C.
   Shelly. 1.0-m reflector + CCD.

Orbital elements:  P10OT5p
   Perihelion 2019 May 7.897230 +/- 0.193 TT = 21:32:00 (JD 2458611.397230)
Epoch 2019 Jun 13.0 TT = JDT 2458647.5   Earth MOID: 0.7014   AutoNEOCP
M   8.33991383 +/- 0.044            (J2000 ecliptic)
n   0.23100481 +/- 0.000161         Peri.   77.31268 +/- 0.14
a   2.63060329 +/- 0.00123          Node   159.90893 +/- 0.041
e   0.3638760 +/- 0.000186          Incl.   10.49666 +/- 0.0033
P   4.27                   H 20.0   G  0.15   U  6.9  
q 1.67338988 +/- 0.000444    Q 3.58781670 +/- 0.0021
From 17 observations 2019 May 26-June 13; mean residual 0".21
Residuals in arcseconds: 
190526 F52  .03-  .07+    190610 F51  .07-  .13-    190612 691  .01-  .11-    
190530 F52  .07+  .11-    190611 691  .36-  .60+    190613 I52  .21+  .20+    
190609 F51  .03+  .05-    190611 691  .13-  .23+    190613 I52  .02-  .63-    
190609 F51  .05+  .06-    190611 691  .07-  .26+    190613 I52  .34+  .15-    
190609 F51  .03+  .09-    190612 691  .12-  .11-    190613 I52  .17-  .11+    
190609 F51  .03+  .09-    190612 691  .15+  .19+    

Ephemerides (geocentric):
Date (UTC) HH   RA              Dec         delta   r     elong  mag " sig PA
---- -- -- --  -------------   -----------  ------ ------ -----  --- ---- ---
2019 06 15 19  16 40 59.497   +02 32 51.35  .74059 1.7020 151.1 21.4 .356 168
2019 06 15 20  16 40 58.552   +02 32 35.25  .74072 1.7021 151.0 21.4 .360 168
2019 06 15 21  16 40 57.610   +02 32 19.12  .74085 1.7021 151.0 21.4 .365 168
2019 06 15 22  16 40 56.670   +02 32 02.94  .74098 1.7022 151.0 21.4 .369 168
2019 06 15 23  16 40 55.732   +02 31 46.72  .74111 1.7022 151.0 21.4 .374 168
2019 06 16 00  16 40 54.795   +02 31 30.45  .74124 1.7023 151.0 21.4 .378 168
2019 06 16 01  16 40 53.860   +02 31 14.15  .74137 1.7024 150.9 21.4 .383 168
2019 06 16 02  16 40 52.928   +02 30 57.80  .74150 1.7024 150.9 21.4 .387 168
2019 06 16 03  16 40 51.997   +02 30 41.42  .74164 1.7025 150.9 21.4 .392 168
2019 06 16 04  16 40 51.068   +02 30 24.99  .74177 1.7025 150.9 21.4 .396 168
2019 06 16 05  16 40 50.141   +02 30 08.52  .74190 1.7026 150.9 21.4 .401 168
2019 06 16 06  16 40 49.216   +02 29 52.01  .74203 1.7027 150.8 21.4 .406 168
2019 06 16 07  16 40 48.293   +02 29 35.46  .74217 1.7027 150.8 21.4 .410 168
2019 06 16 08  16 40 47.372   +02 29 18.87  .74230 1.7028 150.8 21.4 .415 168
2019 06 16 09  16 40 46.453   +02 29 02.23  .74243 1.7028 150.8 21.4 .419 168
2019 06 16 10  16 40 45.536   +02 28 45.56  .74257 1.7029 150.8 21.4 .424 168
2019 06 16 11  16 40 44.621   +02 28 28.84  .74270 1.7030 150.8 21.4 .429 168
2019 06 16 12  16 40 43.708   +02 28 12.09  .74284 1.7030 150.7 21.4 .433 168
2019 06 16 13  16 40 42.796   +02 27 55.29  .74297 1.7031 150.7 21.4 .438 168
2019 06 16 14  16 40 41.887   +02 27 38.45  .74311 1.7032 150.7 21.4 .443 168
2019 06 16 15  16 40 40.980   +02 27 21.57  .74324 1.7032 150.7 21.4 .448 168
2019 06 16 16  16 40 40.074   +02 27 04.65  .74338 1.7033 150.7 21.4 .452 168
2019 06 16 17  16 40 39.171   +02 26 47.69  .74352 1.7033 150.6 21.4 .457 168
2019 06 16 18  16 40 38.270   +02 26 30.69  .74365 1.7034 150.6 21.4 .462 168
2019 06 16 19  16 40 37.370   +02 26 13.65  .74379 1.7035 150.6 21.4 .467 168
2019 06 16 20  16 40 36.473   +02 25 56.56  .74392 1.7035 150.6 21.4 .471 168
2019 06 16 21  16 40 35.577   +02 25 39.44  .74406 1.7036 150.6 21.4 .476 167
2019 06 16 22  16 40 34.684   +02 25 22.28  .74420 1.7036 150.5 21.4 .481 167
2019 06 16 23  16 40 33.793   +02 25 05.07  .74434 1.7037 150.5 21.4 .486 167
2019 06 17 00  16 40 32.903   +02 24 47.83  .74447 1.7038 150.5 21.4 .491 167
2019 06 17 01  16 40 32.016   +02 24 30.54  .74461 1.7038 150.5 21.4 .496 167
2019 06 17 02  16 40 31.131   +02 24 13.21  .74475 1.7039 150.5 21.4 .501 167
2019 06 17 03  16 40 30.247   +02 23 55.85  .74489 1.7040 150.5 21.4 .505 167
2019 06 17 04  16 40 29.366   +02 23 38.44  .74503 1.7040 150.4 21.4 .510 167
2019 06 17 05  16 40 28.487   +02 23 20.99  .74517 1.7041 150.4 21.4 .515 167
2019 06 17 06  16 40 27.610   +02 23 03.51  .74531 1.7041 150.4 21.4 .520 167
2019 06 17 07  16 40 26.735   +02 22 45.98  .74545 1.7042 150.4 21.4 .525 167
2019 06 17 08  16 40 25.862   +02 22 28.41  .74559 1.7043 150.4 21.4 .530 167
2019 06 17 09  16 40 24.991   +02 22 10.80  .74573 1.7043 150.3 21.4 .535 167
2019 06 17 10  16 40 24.122   +02 21 53.16  .74587 1.7044 150.3 21.4 .540 167
2019 06 17 11  16 40 23.255   +02 21 35.47  .74601 1.7045 150.3 21.4 .545 167
2019 06 17 12  16 40 22.390   +02 21 17.74  .74615 1.7045 150.3 21.4 .550 167
2019 06 17 13  16 40 21.527   +02 20 59.97  .74629 1.7046 150.3 21.4 .555 167
2019 06 17 14  16 40 20.666   +02 20 42.17  .74643 1.7046 150.2 21.4 .560 167
2019 06 17 15  16 40 19.808   +02 20 24.32  .74658 1.7047 150.2 21.4 .566 167
2019 06 17 16  16 40 18.951   +02 20 06.43  .74672 1.7048 150.2 21.4 .571 167
2019 06 17 17  16 40 18.097   +02 19 48.51  .74686 1.7048 150.2 21.4 .576 167
2019 06 17 18  16 40 17.244   +02 19 30.54  .74700 1.7049 150.2 21.4 .581 167